Location: Aula-Vintri
(58.3875°N, 22.4322°E)
Time: 08:12:55
(UTC+00:00)

Cosmos 1758 - Pass Details

Date: 13 October 2019
Orbit: 540 x 563 km, 82.5° (Epoch: 13 November)

Event Time Altitude Azimuth Distance (km) Brightness Sun altitude
Rises 16:13:01 0° 174° (S) 2,703 6.8 -6.2°
Reaches altitude 10° 16:15:13 10° 169° (SSE) 1,812 5.9 -6.5°
Maximum altitude 16:19:02 46° 95° (E) 738 3.6 -7.0°
Drops below altitude 10° 16:22:52 10° 22° (NNE) 1,820 5.7 -7.5°
Sets 16:25:05 0° 17° (NNE) 2,717 6.7 -7.8°
